NEA1617 KPHX-KLAX

Flight info

Callsign NEA1617
Flight time 0h 53m
Altitude 34000
Route KEENS3 WLVRN ESTWD HLYWD1
Aircraft B38M/M-SDE1FGHILORVWXY/HB1

Departure

Time 2026-05-08 02:33
Airport Phoenix Sky Harbor International Airport (KPHX)

Arrival

Time 2026-05-08 03:26
Airport Los Angeles International Airport (KLAX)
Time Latitude Longitude Altitude Speed Heading
2026-05-08 02:08 33.43758 -111.99987 1127 ft 0 kts 90°
2026-05-08 02:23 33.43758 -112.00003 1127 ft 4 kts 84°
2026-05-08 02:23 33.43751 -112.00027 1122 ft 4 kts 26°
2026-05-08 02:23 33.43752 -112.00030 1122 ft 4 kts 360°
2026-05-08 02:23 33.43769 -112.00030 1118 ft 0 kts 360°
2026-05-08 02:27 33.43772 -112.00030 1119 ft 2 kts 360°
2026-05-08 02:27 33.43804 -112.00030 1122 ft 7 kts
2026-05-08 02:27 33.43858 -112.00029 1122 ft 9 kts
2026-05-08 02:28 33.43902 -111.99986 1125 ft 10 kts 75°
2026-05-08 02:28 33.43905 -111.99898 1128 ft 12 kts 90°
2026-05-08 02:28 33.43904 -111.99783 1128 ft 16 kts 90°
2026-05-08 02:28 33.43905 -111.99643 1128 ft 18 kts 89°
2026-05-08 02:29 33.43904 -111.99495 1128 ft 16 kts 90°
2026-05-08 02:29 33.43904 -111.99365 1128 ft 15 kts 90°
2026-05-08 02:29 33.43899 -111.99253 1128 ft 12 kts 111°
2026-05-08 02:29 33.43816 -111.99225 1122 ft 15 kts 181°
2026-05-08 02:30 33.43706 -111.99226 1122 ft 17 kts 180°
2026-05-08 02:30 33.43579 -111.99226 1118 ft 19 kts 179°
2026-05-08 02:30 33.43450 -111.99233 1119 ft 17 kts 197°
2026-05-08 02:30 33.43336 -111.99245 1123 ft 15 kts 179°
2026-05-08 02:31 33.43233 -111.99249 1122 ft 14 kts 194°
2026-05-08 02:31 33.43160 -111.99317 1134 ft 12 kts 224°
2026-05-08 02:31 33.43106 -111.99349 1138 ft 6 kts 236°
2026-05-08 02:31 33.43104 -111.99407 1135 ft 11 kts 271°
2026-05-08 02:32 33.43104 -111.99693 1135 ft 64 kts 270°
2026-05-08 02:32 33.43104 -112.00442 1133 ft 114 kts 270°
2026-05-08 02:32 33.43104 -112.01560 1133 ft 152 kts 269°
2026-05-08 02:32 33.43077 -112.02846 1493 ft 157 kts 265°
2026-05-08 02:33 33.42976 -112.04194 1814 ft 171 kts 264°
2026-05-08 02:33 33.42874 -112.05653 2184 ft 178 kts 266°
2026-05-08 02:33 33.42803 -112.07160 2701 ft 183 kts 264°
2026-05-08 02:33 33.42468 -112.08706 3211 ft 204 kts 251°
2026-05-08 02:34 33.41946 -112.10376 3701 ft 224 kts 250°
2026-05-08 02:34 33.41373 -112.12204 4217 ft 244 kts 250°
2026-05-08 02:34 33.40761 -112.14170 4831 ft 259 kts 251°
2026-05-08 02:34 33.40123 -112.16232 5560 ft 269 kts 251°
2026-05-08 02:35 33.39475 -112.18336 6428 ft 271 kts 253°
2026-05-08 02:35 33.39259 -112.20579 7183 ft 274 kts 278°
2026-05-08 02:35 33.39572 -112.22838 8043 ft 278 kts 281°
2026-05-08 02:35 33.39888 -112.25139 8803 ft 285 kts 282°
2026-05-08 02:36 33.40223 -112.27496 9681 ft 289 kts 282°
2026-05-08 02:36 33.40573 -112.29900 10372 ft 298 kts 282°
2026-05-08 02:36 33.40943 -112.32417 10843 ft 316 kts 282°
2026-05-08 02:36 33.41332 -112.35053 11447 ft 328 kts 283°
2026-05-08 02:37 33.41731 -112.37748 12326 ft 329 kts 283°
2026-05-08 02:37 33.42134 -112.40475 13126 ft 337 kts 283°
2026-05-08 02:37 33.42547 -112.43272 13907 ft 343 kts 283°
2026-05-08 02:37 33.42964 -112.46107 14662 ft 349 kts 283°
2026-05-08 02:38 33.43387 -112.48990 15477 ft 353 kts 283°
2026-05-08 02:38 33.43815 -112.51904 16249 ft 359 kts 283°
2026-05-08 02:38 33.44250 -112.54865 17003 ft 364 kts 283°
2026-05-08 02:38 33.44691 -112.57878 17754 ft 370 kts 282°
2026-05-08 02:39 33.45036 -112.60949 18437 ft 376 kts 274°
2026-05-08 02:39 33.45070 -112.64095 19117 ft 379 kts 273°
2026-05-08 02:39 33.45113 -112.67264 19788 ft 382 kts 273°
2026-05-08 02:39 33.45155 -112.70460 20456 ft 385 kts 274°
2026-05-08 02:40 33.45197 -112.73679 21098 ft 389 kts 274°
2026-05-08 02:40 33.45238 -112.76886 21744 ft 391 kts 274°
2026-05-08 02:40 33.45513 -112.80113 22374 ft 388 kts 289°
2026-05-08 02:40 33.46454 -112.83119 23029 ft 387 kts 295°
2026-05-08 02:41 33.47466 -112.86123 23561 ft 392 kts 296°
2026-05-08 02:41 33.48505 -112.89157 24079 ft 394 kts 296°
2026-05-08 02:41 33.49559 -112.92197 24556 ft 397 kts 297°
2026-05-08 02:41 33.50628 -112.95262 25038 ft 400 kts 297°
2026-05-08 02:42 33.51706 -112.98348 25518 ft 403 kts 297°
2026-05-08 02:42 33.52793 -113.01462 25985 ft 406 kts 297°
2026-05-08 02:42 33.53888 -113.04602 26433 ft 409 kts 297°
2026-05-08 02:42 33.54989 -113.07760 26916 ft 412 kts 297°
2026-05-08 02:43 33.56099 -113.10945 27344 ft 416 kts 297°
2026-05-08 02:43 33.57214 -113.14152 27791 ft 418 kts 297°
2026-05-08 02:43 33.58337 -113.17384 28237 ft 421 kts 297°
2026-05-08 02:43 33.59467 -113.20638 28677 ft 424 kts 297°
2026-05-08 02:44 33.60604 -113.23916 29103 ft 427 kts 298°
2026-05-08 02:44 33.61749 -113.27224 29514 ft 430 kts 298°
2026-05-08 02:44 33.62897 -113.30539 29912 ft 433 kts 298°
2026-05-08 02:44 33.64076 -113.33951 30261 ft 436 kts 298°
2026-05-08 02:45 33.65223 -113.37272 30607 ft 439 kts 298°
2026-05-08 02:45 33.66395 -113.40668 30968 ft 441 kts 298°
2026-05-08 02:45 33.67569 -113.44074 31425 ft 443 kts 298°
2026-05-08 02:45 33.68746 -113.47494 31843 ft 444 kts 297°
2026-05-08 02:46 33.69923 -113.50917 32277 ft 443 kts 297°
2026-05-08 02:46 33.71099 -113.54338 32743 ft 442 kts 297°
2026-05-08 02:46 33.72270 -113.57750 33209 ft 441 kts 297°
2026-05-08 02:46 33.73435 -113.61150 33693 ft 440 kts 297°
2026-05-08 02:47 33.74601 -113.64555 33971 ft 441 kts 297°
2026-05-08 02:47 33.75764 -113.67954 33849 ft 438 kts 297°
2026-05-08 02:47 33.78071 -113.74707 33839 ft 436 kts 297°
2026-05-08 02:48 33.80366 -113.81440 33833 ft 434 kts 297°
2026-05-08 02:48 33.82651 -113.88153 33835 ft 434 kts 297°
2026-05-08 02:49 33.84934 -113.94875 33832 ft 434 kts 297°
2026-05-08 02:49 33.87200 -114.01558 33830 ft 434 kts 297°
2026-05-08 02:50 33.89473 -114.08276 33817 ft 434 kts 297°
2026-05-08 02:50 33.91169 -114.15307 33831 ft 442 kts 286°
2026-05-08 02:51 33.92419 -114.22557 33820 ft 442 kts 286°
2026-05-08 02:51 33.93652 -114.29812 33821 ft 442 kts 286°
2026-05-08 02:52 33.94878 -114.37075 33815 ft 442 kts 286°
2026-05-08 02:52 33.96100 -114.44337 33811 ft 444 kts 286°
2026-05-08 02:53 33.97325 -114.51644 33813 ft 444 kts 286°
2026-05-08 02:53 33.98543 -114.58936 33815 ft 444 kts 285°
2026-05-08 02:54 33.99757 -114.66235 33812 ft 444 kts 285°
2026-05-08 02:54 34.00968 -114.73540 33817 ft 444 kts 285°
2026-05-08 02:55 34.02774 -114.84493 33824 ft 444 kts 285°
2026-05-08 02:56 34.03971 -114.91787 33828 ft 444 kts 285°
2026-05-08 02:56 34.05169 -114.99103 33825 ft 444 kts 285°
2026-05-08 02:57 34.06356 -115.06385 33837 ft 442 kts 285°
2026-05-08 02:57 34.07539 -115.13658 33830 ft 441 kts 285°
2026-05-08 02:58 34.08707 -115.20866 33827 ft 441 kts 285°
2026-05-08 02:58 34.09887 -115.28174 33838 ft 441 kts 285°
2026-05-08 02:59 34.11046 -115.35382 33825 ft 439 kts 284°
2026-05-08 02:59 34.12198 -115.42574 33839 ft 436 kts 284°
2026-05-08 03:00 34.13345 -115.49763 33841 ft 436 kts 284°
2026-05-08 03:00 34.14487 -115.56947 33856 ft 436 kts 284°
2026-05-08 03:01 34.15622 -115.64129 33843 ft 436 kts 284°
2026-05-08 03:01 34.16076 -115.71409 33866 ft 440 kts 265°
2026-05-08 03:02 34.15411 -115.78771 33889 ft 442 kts 266°
2026-05-08 03:02 34.14723 -115.86150 33910 ft 442 kts 266°
2026-05-08 03:03 34.14008 -115.93518 33934 ft 442 kts 266°
2026-05-08 03:03 34.13291 -116.00880 33953 ft 441 kts 266°
2026-05-08 03:04 34.12570 -116.08239 33971 ft 441 kts 265°
2026-05-08 03:04 34.11857 -116.15469 33644 ft 425 kts 266°
2026-05-08 03:04 34.11509 -116.18985 33304 ft 419 kts 266°
2026-05-08 03:05 34.11164 -116.22453 32852 ft 415 kts 265°
2026-05-08 03:05 34.10820 -116.25907 32293 ft 413 kts 265°
2026-05-08 03:05 34.10474 -116.29336 31863 ft 410 kts 265°
2026-05-08 03:05 34.10112 -116.32736 31429 ft 407 kts 265°
2026-05-08 03:06 34.09753 -116.36115 30999 ft 405 kts 265°
2026-05-08 03:06 34.09395 -116.39471 30591 ft 403 kts 265°
2026-05-08 03:06 34.09038 -116.42817 30177 ft 401 kts 265°
2026-05-08 03:06 34.08682 -116.46143 29739 ft 399 kts 265°
2026-05-08 03:07 34.08328 -116.49446 29266 ft 396 kts 265°
2026-05-08 03:07 34.07975 -116.52734 28847 ft 393 kts 265°
2026-05-08 03:07 34.07742 -116.54897 28542 ft 392 kts 265°
2026-05-08 03:07 34.07290 -116.59303 27474 ft 402 kts 266°
2026-05-08 03:08 34.06985 -116.62653 26610 ft 413 kts 266°
2026-05-08 03:08 34.06662 -116.66131 25737 ft 421 kts 266°
2026-05-08 03:08 34.06332 -116.69647 25142 ft 422 kts 266°
2026-05-08 03:08 34.06002 -116.73148 24697 ft 419 kts 266°
2026-05-08 03:09 34.05780 -116.75505 24389 ft 418 kts 266°
2026-05-08 03:09 34.05347 -116.80085 23785 ft 413 kts 266°
2026-05-08 03:09 34.05127 -116.82409 23486 ft 411 kts 266°
2026-05-08 03:09 34.04802 -116.85824 22944 ft 409 kts 266°
2026-05-08 03:10 34.04446 -116.89217 22486 ft 406 kts 263°
2026-05-08 03:10 34.04012 -116.92552 22069 ft 401 kts 263°
2026-05-08 03:10 34.03588 -116.95871 21573 ft 399 kts 263°
2026-05-08 03:10 34.03169 -116.99165 21147 ft 396 kts 263°
2026-05-08 03:11 34.02756 -117.02442 20666 ft 394 kts 263°
2026-05-08 03:11 34.02370 -117.05701 20248 ft 391 kts 263°
2026-05-08 03:11 34.01985 -117.08940 19800 ft 390 kts 263°
2026-05-08 03:11 34.01602 -117.12162 19365 ft 387 kts 263°
2026-05-08 03:12 34.01219 -117.15367 18945 ft 385 kts 263°
2026-05-08 03:12 34.00837 -117.18555 18545 ft 383 kts 263°
2026-05-08 03:12 34.00464 -117.21658 18277 ft 378 kts 263°
2026-05-08 03:12 34.00089 -117.24789 17798 ft 376 kts 263°
2026-05-08 03:13 33.99718 -117.27895 17371 ft 373 kts 263°
2026-05-08 03:13 33.99387 -117.30980 16984 ft 369 kts 264°
2026-05-08 03:13 33.99044 -117.34022 16630 ft 366 kts 263°
2026-05-08 03:13 33.98674 -117.37036 16150 ft 365 kts 262°
2026-05-08 03:14 33.98302 -117.40102 15419 ft 373 kts 262°
2026-05-08 03:14 33.97925 -117.43213 14794 ft 377 kts 262°
2026-05-08 03:14 33.97546 -117.46331 14186 ft 373 kts 262°
2026-05-08 03:14 33.97369 -117.49393 13604 ft 362 kts 277°
2026-05-08 03:15 33.97859 -117.52304 13113 ft 348 kts 283°
2026-05-08 03:15 33.98353 -117.55095 12772 ft 340 kts 283°
2026-05-08 03:15 33.98847 -117.57885 12380 ft 338 kts 283°
2026-05-08 03:15 33.99334 -117.60641 11970 ft 334 kts 283°
2026-05-08 03:16 33.99808 -117.63321 11573 ft 321 kts 283°
2026-05-08 03:16 34.00265 -117.65909 11209 ft 309 kts 283°
2026-05-08 03:16 34.00622 -117.68410 10840 ft 299 kts 272°
2026-05-08 03:16 34.00427 -117.70871 10466 ft 290 kts 264°
2026-05-08 03:17 34.00199 -117.73247 10134 ft 280 kts 265°
2026-05-08 03:17 33.99978 -117.75554 9792 ft 276 kts 265°
2026-05-08 03:17 33.99754 -117.77855 9401 ft 278 kts 265°
2026-05-08 03:17 33.99529 -117.80164 9075 ft 278 kts 264°
2026-05-08 03:18 33.99304 -117.82472 8726 ft 277 kts 265°
2026-05-08 03:18 33.99080 -117.84781 8356 ft 277 kts 264°
2026-05-08 03:18 33.98856 -117.87087 8046 ft 276 kts 265°
2026-05-08 03:18 33.98632 -117.89379 7718 ft 276 kts 265°
2026-05-08 03:19 33.98445 -117.91677 7367 ft 275 kts 266°
2026-05-08 03:19 33.98251 -117.93977 7030 ft 276 kts 265°
2026-05-08 03:19 33.98038 -117.96240 6693 ft 268 kts 265°
2026-05-08 03:19 33.97820 -117.98439 6366 ft 259 kts 265°
2026-05-08 03:20 33.97608 -118.00545 6039 ft 251 kts 265°
2026-05-08 03:20 33.97397 -118.02612 5722 ft 243 kts 265°
2026-05-08 03:20 33.97194 -118.04602 5392 ft 236 kts 264°
2026-05-08 03:20 33.96999 -118.06511 5098 ft 229 kts 265°
2026-05-08 03:21 33.96808 -118.08384 4850 ft 225 kts 265°
2026-05-08 03:21 33.96614 -118.10267 4540 ft 226 kts 265°
2026-05-08 03:21 33.96420 -118.12149 4243 ft 227 kts 264°
2026-05-08 03:21 33.96227 -118.14036 3960 ft 227 kts 264°
2026-05-08 03:22 33.96037 -118.15891 3665 ft 220 kts 264°
2026-05-08 03:22 33.95852 -118.17694 3395 ft 213 kts 264°
2026-05-08 03:22 33.95673 -118.19435 3122 ft 207 kts 264°
2026-05-08 03:22 33.95501 -118.21109 2914 ft 193 kts 264°
2026-05-08 03:23 33.95341 -118.22673 2642 ft 185 kts 263°
2026-05-08 03:23 33.95182 -118.24217 2398 ft 186 kts 263°
2026-05-08 03:23 33.95024 -118.25758 2150 ft 185 kts 263°
2026-05-08 03:23 33.94866 -118.27295 1907 ft 185 kts 262°
2026-05-08 03:24 33.94714 -118.28778 1683 ft 169 kts 262°
2026-05-08 03:24 33.94577 -118.30113 1459 ft 152 kts 262°
2026-05-08 03:24 33.94451 -118.31338 1264 ft 147 kts 262°
2026-05-08 03:24 33.94328 -118.32552 1066 ft 145 kts 262°
2026-05-08 03:25 33.94203 -118.33743 862 ft 142 kts 261°
2026-05-08 03:25 33.94085 -118.34909 676 ft 138 kts 261°
2026-05-08 03:25 33.93963 -118.36057 480 ft 138 kts 260°
2026-05-08 03:25 33.93850 -118.37203 309 ft 139 kts 262°
2026-05-08 03:26 33.93727 -118.38366 121 ft 141 kts 263°
2026-05-08 03:26 33.93618 -118.39434 96 ft 110 kts 263°
2026-05-08 03:26 33.93553 -118.40064 98 ft 52 kts 263°
2026-05-08 03:26 33.93539 -118.40434 98 ft 30 kts 277°
2026-05-08 03:27 33.93581 -118.40599 99 ft 14 kts 292°
2026-05-08 03:27 33.93597 -118.40689 98 ft 12 kts 272°
2026-05-08 03:27 33.93590 -118.40801 96 ft 15 kts 263°
2026-05-08 03:27 33.93578 -118.40905 97 ft 13 kts 263°
2026-05-08 03:28 33.93566 -118.41024 97 ft 16 kts 263°
2026-05-08 03:28 33.93554 -118.41158 96 ft 12 kts 269°
2026-05-08 03:28 33.93567 -118.41217 99 ft 1 kts 295°
2026-05-08 03:28 33.93586 -118.41247 97 ft 10 kts 318°
2026-05-08 03:29 33.93675 -118.41274 100 ft 15 kts 352°
2026-05-08 03:29 33.93751 -118.41238 98 ft 12 kts 75°
2026-05-08 03:29 33.93764 -118.41120 98 ft 16 kts 83°
2026-05-08 03:29 33.93779 -118.40976 96 ft 18 kts 83°
2026-05-08 03:30 33.93813 -118.40642 98 ft 22 kts 83°
2026-05-08 03:30 33.93915 -118.40537 96 ft 13 kts 352°
2026-05-08 03:31 33.94078 -118.40561 97 ft 12 kts 353°
2026-05-08 03:31 33.94153 -118.40607 99 ft 5 kts 261°
2026-05-08 03:32 33.94150 -118.40634 99 ft 1 kts 263°
2026-05-08 03:32 33.94150 -118.40635 99 ft 0 kts 263°